Retour au catalogue

STARLINK-3354

ActifCommunicationsVLEO
NORAD 51146·PAYLOAD·🇺🇸 United States

Lancé Jan 19, 2022 depuis Cape Canaveral Space Force Station

Loading…

Prochains Passages (prochaines 24 heures)

TLE

FraisSource: CelesTrak SupGP

Époque: Sep 14, 2026, 21:20 UTC

1 51146C 22005AU  26257.88937500 -.00029474  00000+0 -87059-3 0  2574
2 51146  53.1566 155.6164 0001175  90.8891 343.5170 15.34414053    16

Suivez STARLINK-3354 en temps réel avec AllMySat

Download on the App Store